Arctic Village, AK

1:58 AM AKDT on June 24, 2017 (GMT -0800)
Arctic Village

Weather History for PARC - January, 2013

Change the Weather History Date:

Thursday, January 3, 2013

  Actual Average Record
Temperature  
Mean Temperature -3 °F -  
Max Temperature 5 °F -7 °F 19 °F (2016)
Min Temperature -11 °F -29 °F -55 °F (1971)
Degree Days  
Heating Degree Days 68    
Moisture  
Dew Point -15 °F    
Average Humidity 61    
Maximum Humidity 100    
Minimum Humidity 27    
Precipitation  
Precipitation 0.00 in - - ()
Sea Level Pressure  
Sea Level Pressure 29.68 in    
Wind  
Wind Speed 0 mph (East)    
Max Wind Speed 4 mph    
Max Gust Speed -    
Visibility 7 miles    
Events      
Averages and records for this station are not official NWS values.
T = Trace of Precipitation, MM = Missing Value Source: NWS Daily Summary

Daily Weather History Graph

Daily Weather History Graph

Search for Another Location

Airport or City:

Trip Planner

Search our weather history database for the weather conditions in past years. The results will help you decide how hot, cold, wet, or windy it might be!

Date:

Astronomy

Jan. 03, 2013 Rise Set
Actual Time 12:14 PM AKST 1:19 PM AKST
Civil Twilight 9:57 AM AKST 3:36 PM AKST
Nautical Twilight 8:31 AM AKST 5:03 PM AKST
Astronomical Twilight 7:20 AM AKST 6:14 PM AKST
Moon No Moon Rise 11:00 AM AKST (1/3)
Length of Visible Light 5h 38m
Length of Day
1h 04m
Waning Gibbous, 64% of the Moon is Illuminated
Jan 3
Waning Gibbous
Jan 4
Last Quarter
Jan 11
New
Jan 18
First Quarter
Jan 26
Full

Hourly Weather History & Observations

Time (AKST) Temp. Windchill Dew Point Humidity Pressure Visibility Wind Dir Wind Speed Gust Speed Precip Events Conditions
12:16 AM 3.2 °F - -20.2 °F 33% 29.54 in 3.0 mi Calm Calm - N/A   Overcast
12:36 AM 3.2 °F - -0.4 °F 85% 29.54 in 2.5 mi Calm Calm - N/A   Overcast
12:56 AM 3.2 °F - - N/A% 29.56 in 5.0 mi Calm Calm - N/A   Overcast
1:16 AM 3.2 °F - -11.2 °F 51% 29.56 in 0.5 mi Calm Calm - N/A   Overcast
1:36 AM 3.2 °F - -18.4 °F 36% 29.57 in 0.5 mi Calm Calm - N/A   Overcast
1:56 AM 5.0 °F - -4.0 °F 66% 29.58 in 0.5 mi Calm Calm - N/A   Overcast
2:16 AM 5.0 °F - - N/A% 29.58 in 0.8 mi Calm Calm - N/A   Overcast
3:36 AM 5.0 °F - - N/A% 29.59 in 6.0 mi Calm Calm - N/A   Overcast
3:56 AM 5.0 °F - - N/A% 29.60 in 10.0 mi Calm Calm - N/A   Overcast
4:16 AM 3.2 °F - -16.6 °F 39% 29.61 in 10.0 mi Calm Calm - N/A   Overcast
4:36 AM 3.2 °F - -18.4 °F 36% 29.60 in 10.0 mi Calm Calm - N/A   Overcast
4:56 AM 5.0 °F - 5.0 °F 100% 29.61 in 1.2 mi Calm Calm - N/A   Overcast
5:16 AM 1.4 °F - 1.4 °F 100% 29.62 in 1.0 mi Calm Calm - N/A   Overcast
5:36 AM 1.4 °F - -18.4 °F 39% 29.63 in 0.8 mi Calm Calm - N/A   Overcast
5:56 AM 3.2 °F - -11.2 °F 51% 29.63 in 1.2 mi Calm Calm - N/A   Overcast
6:16 AM 1.4 °F - - N/A% 29.63 in 0.5 mi Calm Calm - N/A   Overcast
6:36 AM -0.4 °F - -23.8 °F 32% 29.63 in 0.8 mi Calm Calm - N/A   Mostly Cloudy
6:56 AM -0.4 °F - -0.4 °F 100% 29.63 in 1.2 mi Calm Calm - N/A   Scattered Clouds
7:16 AM -0.4 °F - -11.2 °F 60% 29.64 in 1.0 mi Calm Calm - N/A   Mostly Cloudy
7:36 AM -2.2 °F - -25.6 °F 32% 29.64 in 1.0 mi Calm Calm - N/A   Clear
7:56 AM -2.2 °F - - N/A% 29.65 in 1.0 mi Calm Calm - N/A   Clear
8:16 AM -0.4 °F - -23.8 °F 32% 29.65 in 2.0 mi Calm Calm - N/A   Clear
8:36 AM -2.2 °F - - N/A% 29.66 in 3.0 mi Calm Calm - N/A   Clear
8:56 AM -2.2 °F - -11.2 °F 66% 29.67 in 1.2 mi Calm Calm - N/A   Clear
9:16 AM -2.2 °F - -27.4 °F 29% 29.68 in 3.0 mi Calm Calm - N/A   Clear
9:36 AM -2.2 °F - -2.2 °F 100% 29.68 in 2.5 mi Calm Calm - N/A   Clear
9:56 AM -7.6 °F - - N/A% 29.69 in 10.0 mi Calm Calm - N/A   Clear
10:16 AM -5.8 °F - -5.8 °F 100% 29.69 in 10.0 mi Calm Calm - N/A   Clear
10:36 AM -5.8 °F - -27.4 °F 35% 29.70 in 10.0 mi Calm Calm - N/A   Clear
10:56 AM -5.8 °F - - N/A% 29.70 in 9.0 mi Calm Calm - N/A   Clear
11:16 AM -5.8 °F - - N/A% 29.71 in 10.0 mi Calm Calm - N/A   Clear
11:36 AM -4.0 °F - - N/A% 29.72 in 10.0 mi Calm Calm - N/A   Clear
11:56 AM -7.6 °F - - N/A% 29.72 in 10.0 mi Calm Calm - N/A   Clear
12:16 PM -7.6 °F - -11.2 °F 84% 29.72 in 10.0 mi Calm Calm - N/A   Clear
12:36 PM -5.8 °F - -27.4 °F 35% 29.72 in 10.0 mi Calm Calm - N/A   Clear
12:56 PM -11.2 °F - -14.8 °F 84% 29.72 in 9.0 mi Calm Calm - N/A   Clear
1:16 PM -7.6 °F - -7.6 °F 100% 29.72 in 10.0 mi Calm Calm - N/A   Scattered Clouds
1:36 PM -5.8 °F - -5.8 °F 100% 29.73 in 10.0 mi Calm Calm - N/A   Overcast
1:56 PM -7.6 °F - - N/A% 29.73 in 9.0 mi Calm Calm - N/A   Mostly Cloudy
2:16 PM -5.8 °F -14.5 °F -18.4 °F 55% 29.72 in 10.0 mi East 3.5 mph - N/A   Mostly Cloudy
2:36 PM -5.8 °F - -23.8 °F 42% 29.73 in 10.0 mi Calm Calm - N/A   Overcast
2:56 PM -5.8 °F - -9.4 °F 84% 29.73 in 3.0 mi Calm Calm - N/A   Overcast
3:16 PM -2.2 °F - -27.4 °F 29% 29.72 in 10.0 mi Calm Calm - N/A   Overcast
3:36 PM -4.0 °F - - N/A% 29.73 in 10.0 mi Calm Calm - N/A   Overcast
3:56 PM -4.0 °F - -29.2 °F 29% 29.73 in 10.0 mi Calm Calm - N/A   Overcast
4:16 PM -2.2 °F - - N/A% 29.73 in 10.0 mi Calm Calm - N/A   Overcast
4:36 PM -2.2 °F - -25.6 °F 32% 29.73 in 10.0 mi Calm Calm - N/A   Mostly Cloudy
4:56 PM -7.6 °F - -7.6 °F 100% 29.73 in 10.0 mi Calm Calm - N/A   Clear
5:16 PM -5.8 °F - -27.4 °F 35% 29.73 in 10.0 mi Calm Calm - N/A   Clear
5:36 PM -4.0 °F - -5.8 °F 92% 29.73 in 10.0 mi Calm Calm - N/A   Clear
5:56 PM -2.2 °F - -18.4 °F 46% 29.73 in 10.0 mi Calm Calm - N/A   Clear
6:16 PM -5.8 °F - -25.6 °F 38% 29.74 in 10.0 mi Calm Calm - N/A   Clear
6:36 PM -7.6 °F - -18.4 °F 59% 29.74 in 10.0 mi Calm Calm - N/A   Clear
6:56 PM -7.6 °F - -20.2 °F 54% 29.74 in 10.0 mi Calm Calm - N/A   Clear
7:16 PM -2.2 °F - -13.0 °F 60% 29.74 in 10.0 mi Calm Calm - N/A   Clear
7:36 PM -0.4 °F - -25.6 °F 30% 29.73 in 10.0 mi Calm Calm - N/A   Clear
7:56 PM -2.2 °F - -7.6 °F 78% 29.73 in 10.0 mi Calm Calm - N/A   Clear
8:16 PM -2.2 °F - -29.2 °F 27% 29.73 in 10.0 mi Calm Calm - N/A   Clear
8:36 PM -7.6 °F - -11.2 °F 84% 29.73 in 10.0 mi Calm Calm - N/A   Clear
9:16 PM -9.4 °F - -18.4 °F 65% 29.74 in 10.0 mi Calm Calm - N/A   Clear
9:36 PM -7.6 °F - - N/A% 29.74 in 10.0 mi Calm Calm - N/A   Clear
9:56 PM -7.6 °F - - N/A% 29.73 in 10.0 mi Calm Calm - N/A   Clear
10:16 PM -5.8 °F - -14.8 °F 65% 29.74 in 10.0 mi Calm Calm - N/A   Clear
10:36 PM -2.2 °F - -2.2 °F 100% 29.74 in 10.0 mi Calm Calm - N/A   Clear
10:56 PM -2.2 °F - -14.8 °F 55% 29.74 in 10.0 mi Calm Calm - N/A   Clear
11:16 PM -2.2 °F - -5.8 °F 85% 29.74 in 10.0 mi Calm Calm - N/A   Clear
11:36 PM -4.0 °F - -16.6 °F 55% 29.74 in 10.0 mi Calm Calm - N/A   Clear
11:56 PM -2.2 °F - -9.4 °F 71% 29.74 in 10.0 mi Calm Calm - N/A   Clear